Starlink 4014

operational
NORAD ID: 52684 Int'l Des: 2022-053 Owner: SPXS Country: US Constellation: starlink
LEOCIRCULAR

Starlink 4014について

説明を読み込み中...

リアルタイム位置

3D地球を読み込み中...

次回通過

高度履歴

Altitude vs Time

uPlot chart will show altitude changes over time

軌道要素

1 52684U 22053AE 26062.59070154 -.00000158 00000-0 81232-5 0 9990
2 52684 53.2177 171.5008 0001023 93.3156 266.7953 15.08837580210216
Epoch: Mar 3, 2026 • Age: 41 hours

現在のステータス

高度 544.5 km
速度 7.60 km/s
衛星直下点 47.75°N, 156.34°E
打ち上げ日 May 18, 2022
運用期間 3.7 years
タイプ internet

技術仕様

分類 Payload
質量 297.00 kg
乾燥質量 275.00 kg
総質量 297.00 kg
長さ 0.20 m
直径 2.80 m
スパン 9.00 m
形状 Box + pan
製造者 SPXS
バスタイプ Starlink
フェーズステータス In Orbit
所有者/国 SPXS/US

大規模コンステレーション

Loading constellations...